METEOR 2-5 DEB, 28594

Orbit data source: Space-Track

METEOR 2-5 DEB, 28594 is space debris in LEO originally from a launch on Wed, 31 Oct 1979 UTC launched from the Plesetsk Missile And Space Complex (PKMTR). Debris objects in space refer to the collection of defunct objects orbiting the Earth. Examples of debris include non-operational satellites, rocket bodies, and fragments generated from explosions, collisions, or faulty payload assembly.

Loading next visibility...
Identifier
28594, 1979-095E
Orbit
LEO
Country
Flag of CISCIS
Related business
Manufacturer
Unknown
Mission
Spacecraft
Bus & Motor
Unknown
Mass
Unknown
Launch date (UTC)
1979-10-31 (47 years ago)
Launch vehicle
Unknown
Launch site
Plesetsk Missile And Space Complex (PKMTR)
Object type
Payload
Rocket body
Debris
Shape & HBR
Unknown shape, 0.1 m
Radar Cross Section
Small (<0.1 m²)

Expand to show TLE details & history
Last TLE update: 1 week ago

TLE from 1 week ago
0 METEOR 2-5 DEB
1 28594U 79095E   26116.16688885  .00030206  00000-0  49415-2 0  9990
2 28594  81.1503  74.4061 0016404  11.0780 349.0782 14.70579329125987
Epoch: 2026-04-26T04:00Z
TLE epoch observation values (Epoch: 2026-04-26T04:00:19.196Z)
Latitude
0.00001°
Longitude
160.15132°
Altitude
650.861 km
Speed
7.538 km/s
True Right ascension
04h 57m 37s
True Declination
0° 00' 00"
Sunlit
Object was in daylight at epoch
Visualization orbit readout
Latitude
Unknown
Longitude
Unknown
Altitude
Unknown
Speed
Unknown
Apparent Right ascension
Unknown
Apparent Declination
Unknown
Sunlit
N/A
Visualization observer readout
Local Sidereal Time
14:16:18
Azimuth
Unknown
Elevation
Unknown
Doppler factor
Unknown
Orbital elements
Apogee altitude
667.857 km
Perigee altitude
644.778 km
Semi-major axis
7,034.455 km
Eccentricity
0.00164
Inclination
81.1503°
RAAN
74.4061°
Arg. of periapsis
11.078°
True anomaly
349.04251°
Mean anomaly
349.0782°
Eccentric anomaly
349.06036°
Mean motion
3.67873 °/min
Orbital period
97.86 mins
BSTAR
0.0049415
Loading maneuver chart data...
Computing Atmospheric mass density...

Documentation

Showing up to 5 results
|